GW1374 Weather Reports


Display with metric or nautical units.
time (UTC)temp
F
wind
direction
speed
MPH
gust
MPH
rain 1hr
in
rain 24hr
in
rain mn
in
humidity
%
barometer
mb
20260831194623 64 205 0.0 2.0 0.07 0.26 0.26 97 1019.0
20260831193054 64 0 0.0 2.0 0.03 0.22 0.22 96 1019.0
20260831191553 64 0 1.0 2.0 0.01 0.20 0.20 96 1019.0
20260831184555 64 205 0.0 2.0 0.00 0.19 0.19 96 1019.5
20260831183053 64 168 0.0 2.0 0.01 0.19 0.19 96 1019.7
20260831181552 63 0 0.0 2.0 0.02 0.19 0.19 96 1019.8
20260831174554 63 178 1.0 2.0 0.05 0.19 0.19 95 1020.2
20260831173057 63 232 1.0 2.0 0.05 0.18 0.18 95 1020.4
20260831171602 64 212 0.0 2.0 0.06 0.17 0.17 95 1020.5
20260831164556 64 205 0.0 2.0 0.14 0.14 0.14 94 1020.7
20260831163107 64 205 0.0 2.0 0.13 0.13 0.13 94 1020.9
20260831161602 64 0 0.0 2.0 0.10 0.10 0.10 92 1020.9
20260831160056 65 0 0.0 2.0 0.02 0.02 0.02 90 1021.1
20260831154613 65 0 0.0 1.0 0.00 0.00 0.00 88 1021.0
20260831153052 65 162 0.0 2.0 0.00 0.00 0.00 88 1020.9
20260831151558 65 162 0.0 2.0 0.00 0.00 0.00 88 1020.8
20260831150052 65 170 1.0 2.0 0.00 0.00 0.00 88 1020.7
20260831144610 65 168 0.0 4.0 0.00 0.00 0.00 89 1020.6
20260831143059 65 185 1.0 3.0 0.00 0.00 0.00 89 1020.7
20260831141553 64 142 1.0 3.0 0.00 0.00 0.00 90 1020.5
20260831140051 64 153 0.0 2.0 0.00 0.00 0.00 92 1020.8
20260831134559 63 44 1.0 4.0 0.00 0.00 0.00 94 1020.6
20260831133054 63 93 0.0 2.0 0.00 0.00 0.00 95 1020.8
20260831131556 62 76 0.0 2.0 0.00 0.00 0.00 96 1021.0
20260831130121 61 178 0.0 2.0 0.00 0.00 0.00 96 1021.1
20260831124552 60 119 1.0 2.0 0.00 0.00 0.00 96 1020.8
20260831123053 60 126 0.0 2.0 0.00 0.00 0.00 96 1020.9
20260831121603 60 0 0.0 2.0 0.00 0.00 0.00 96 1021.1
20260831120054 60 93 1.0 2.0 0.00 0.00 0.00 96 1021.1
20260831114553 60 0 0.0 1.0 0.00 0.00 0.00 96 1021.0
20260831113101 59 0 0.0 1.0 0.00 0.00 0.00 96 1021.0
20260831111552 59 0 0.0 2.0 0.00 0.00 0.00 96 1020.8
20260831110055 59 22 0.0 2.0 0.00 0.00 0.00 95 1020.7
20260831104557 59 93 1.0 2.0 0.00 0.00 0.00 96 1020.4
20260831103054 59 0 0.0 2.0 0.00 0.00 0.00 96 1020.3
20260831101601 59 144 0.0 2.0 0.00 0.00 0.00 96 1020.3
20260831100100 59 0 0.0 1.0 0.00 0.00 0.00 96 1020.4
20260831094553 59 205 0.0 2.0 0.00 0.00 0.00 95 1020.3
20260831093054 59 178 0.0 2.0 0.00 0.00 0.00 96 1020.3
20260831091607 59 178 0.0 2.0 0.00 0.00 0.00 96 1020.5
20260831090053 59 0 0.0 2.0 0.00 0.00 0.00 96 1020.3
20260831084552 59 319 0.0 2.0 0.00 0.00 0.00 95 1020.2
20260831083100 59 0 0.0 2.0 0.00 0.00 0.00 94 1020.0
20260831081554 60 0 0.0 2.0 0.00 0.00 0.00 95 1020.4
20260831080053 60 67 0.0 1.0 0.00 0.00 0.00 95 1020.2
20260831074604 60 0 0.0 1.0 0.00 0.00 0.00 95 1020.2
20260831073110 60 0 0.0 1.0 0.00 0.00 0.00 94 1020.2
20260831071555 60 0 0.0 1.0 0.00 0.00 0.00 94 1020.2
20260831070055 60 0 0.0 1.0 0.00 0.00 0.00 94 1020.2
20260831064600 60 0 0.0 2.0 0.00 0.00 0.00 93 1020.2
20260831063055 61 0 0.0 1.0 0.00 0.00 0.00 93 1020.2
20260831061554 61 0 0.0 2.0 0.00 0.00 0.00 93 1020.4
20260831060107 61 51 0.0 1.0 0.00 0.00 0.00 93 1020.6
20260831054556 61 0 0.0 1.0 0.00 0.00 0.00 93 1020.8
20260831053058 61 265 0.0 3.0 0.00 0.00 0.00 92 1020.9
20260831051601 62 0 0.0 2.0 0.00 0.00 0.00 91 1020.8
20260831050059 62 0 0.0 1.0 0.00 0.00 0.00 91 1020.7
20260831044558 62 0 0.0 1.0 0.00 0.00 0.00 91 1020.9
20260831043051 62 0 0.0 1.0 0.00 0.00 0.00 91 1020.8
20260831041644 63 0 0.0 2.0 0.00 0.00 0.00 91 1020.8
20260831040058 63 0 0.0 1.0 0.00 0.00 0.00 90 1020.6
20260831034553 63 0 0.0 1.0 0.00 0.00 0.00 90 1020.6
20260831033100 63 0 0.0 1.0 0.00 0.00 0.00 89 1020.8
20260831031551 63 0 0.0 1.0 0.00 0.00 0.00 89 1020.8
20260831030100 63 0 0.0 1.0 0.00 0.00 0.00 89 1020.9
20260831024621 63 93 0.0 1.0 0.00 0.00 0.00 89 1021.0
20260831023054 64 0 0.0 1.0 0.00 0.00 0.00 88 1020.9
20260831021554 64 0 0.0 1.0 0.00 0.00 0.00 88 1020.9
20260831014555 64 0 0.0 1.0 0.00 0.00 0.00 88 1020.9
20260831013107 64 0 0.0 1.0 0.00 0.00 0.00 88 1020.8
20260831011556 64 0 0.0 2.0 0.00 0.00 0.00 87 1020.8
20260831010120 64 0 0.0 2.0 0.00 0.00 0.00 87 1020.8
20260831004556 64 0 0.0 2.0 0.00 0.00 0.00 87 1020.4
20260831003051 64 0 0.0 2.0 0.00 0.00 0.00 87 1020.2
20260831001606 64 303 0.0 2.0 0.00 0.00 0.00 86 1019.9
20260831000111 65 9 0.0 2.0 0.00 0.00 0.00 86 1019.8
20260830234554 65 51 0.0 3.0 0.00 0.00 0.00 85 1019.6
20260830233102 65 309 1.0 3.0 0.00 0.00 0.00 84 1019.7
20260830231558 66 44 1.0 4.0 0.00 0.00 0.00 84 1019.7
20260830230057 66 0 0.0 2.0 0.00 0.00 0.00 84 1019.6
20260830224553 66 265 0.0 2.0 0.00 0.00 0.00 83 1019.9
20260830223133 67 0 0.0 2.0 0.00 0.00 0.00 82 1019.6
20260830221557 67 0 0.0 1.0 0.00 0.00 0.00 83 1019.4
20260830220108 67 265 0.0 1.0 0.00 0.00 0.00 82 1019.7
20260830214559 67 0 0.0 2.0 0.00 0.00 0.00 82 1019.3
20260830213059 67 0 0.0 2.0 0.00 0.00 0.00 81 1019.4
20260830211555 68 0 0.0 2.0 0.00 0.00 0.00 81 1019.7
20260830210053 68 0 0.0 2.0 0.00 0.00 0.00 80 1019.7
20260830204556 68 0 0.0 2.0 0.00 0.00 0.00 79 1019.6
20260830203055 67 137 0.0 2.0 0.00 0.00 0.00 81 1019.6
20260830201553 67 9 0.0 3.0 0.00 0.00 0.00 80 1019.6
20260830200050 68 9 0.0 3.0 0.00 0.00 0.00 80 1019.5